Weather History for KEST - September, 2014

Change the Weather History Date:

Tuesday, September 2, 2014

  Actual Average Record
Temperature  
Mean Temperature 65 °F 66 °F  
Max Temperature 75 °F 77 °F 95 °F (1953)
Min Temperature 55 °F 54 °F 40 °F (1952)
Degree Days  
Heating Degree Days 0 2  
Month to date heating degree days 0 4  
Since 1 July heating degree days 32 36  
Cooling Degree Days 0 3  
Month to date cooling degree days 2 6  
Year to date cooling degree days 411 546  
Growing Degree Days 15 (Base 50)    
Moisture  
Dew Point 57 °F    
Average Humidity 77    
Maximum Humidity 100    
Minimum Humidity 54    
Precipitation  
Precipitation 0.00 in 0.09 in 1.50 in (1963)
Month to date precipitation 0.00 0.19  
Sea Level Pressure  
Sea Level Pressure 29.92 in    
Wind  
Wind Speed 8 mph (SW)    
Max Wind Speed 15 mph    
Max Gust Speed 19 mph    
Visibility 10 miles    
Events      
T = Trace of Precipitation, MM = Missing Value Source: NWS Daily Summary

Daily Weather History Graph

Daily Weather History Graph

Search for Another Location

Airport or City:

Trip Planner

Search our weather history database for the weather conditions in past years. The results will help you decide how hot, cold, wet, or windy it might be!

Date:

Astronomy

Sep. 02, 2014 Rise Set
Actual Time 6:44 AM CDT 7:52 PM CDT
Civil Twilight 6:14 AM CDT 8:21 PM CDT
Nautical Twilight 5:39 AM CDT 8:56 PM CDT
Astronomical Twilight 5:02 AM CDT 9:33 PM CDT
Moon 2:41 PM CDT (9/2) No Moon Set
Length of Visible Light 14h 06m
Length of Day
13h 08m
First Quarter, 53% of the Moon is Illuminated
Sep 2
First Quarter
Sep 8
Full
Sep 15
Last Quarter
Sep 24
New
Oct 1
First Quarter

Hourly Weather History & Observations

Time (CDT) Temp. Dew Point Humidity Pressure Visibility Wind Dir Wind Speed Gust Speed Precip Events Conditions
12:52 AM 57.0 °F 55.0 °F 93% 29.86 in 10.0 mi South 5.8 mph - N/A   Clear
1:52 AM 57.9 °F 57.0 °F 97% 29.87 in 10.0 mi SSW 5.8 mph - N/A   Scattered Clouds
2:52 AM 60.1 °F 57.9 °F 93% 29.88 in 10.0 mi WSW 8.1 mph - N/A   Clear
3:52 AM 60.1 °F 57.0 °F 90% 29.90 in 10.0 mi West 5.8 mph - N/A   Mostly Cloudy
4:52 AM 57.9 °F 55.0 °F 90% 29.91 in 10.0 mi West 6.9 mph - N/A   Mostly Cloudy
5:52 AM 55.9 °F 55.9 °F 100% 29.91 in 10.0 mi SSW 5.8 mph - N/A   Partly Cloudy
6:52 AM 55.9 °F 55.0 °F 97% 29.91 in 10.0 mi SSW 6.9 mph - N/A   Overcast
7:52 AM 57.0 °F 55.9 °F 96% 29.92 in 10.0 mi SW 5.8 mph - N/A   Clear
8:21 AM 60.1 °F 57.0 °F 90% 29.93 in 10.0 mi West 5.8 mph - N/A   Partly Cloudy
8:52 AM 63.0 °F 57.0 °F 81% 29.93 in 10.0 mi West 5.8 mph - N/A   Clear
9:52 AM 66.0 °F 57.0 °F 73% 29.94 in 10.0 mi WNW 8.1 mph - N/A   Clear
10:52 AM 69.1 °F 59.0 °F 70% 29.95 in 10.0 mi SW 8.1 mph - N/A   Clear
11:52 AM 71.1 °F 57.9 °F 63% 29.95 in 10.0 mi WSW 9.2 mph - N/A   Clear
12:52 PM 72.0 °F 57.9 °F 61% 29.94 in 10.0 mi WSW 12.7 mph 18.4 mph N/A   Clear
1:52 PM 73.0 °F 57.0 °F 57% 29.94 in 10.0 mi West 10.4 mph - N/A   Scattered Clouds
2:52 PM 75.0 °F 57.0 °F 53% 29.94 in 10.0 mi SW 11.5 mph - N/A   Clear
3:52 PM 75.0 °F 57.0 °F 53% 29.94 in 10.0 mi SW 11.5 mph - N/A   Clear
4:52 PM 75.0 °F 57.0 °F 53% 29.93 in 10.0 mi WSW 11.5 mph - N/A   Partly Cloudy
5:52 PM 73.9 °F 57.9 °F 57% 29.92 in 10.0 mi WSW 8.1 mph - N/A   Clear
6:52 PM 71.1 °F 59.0 °F 66% 29.91 in 10.0 mi WSW 5.8 mph - N/A   Clear
7:52 PM 64.9 °F 57.9 °F 78% 29.91 in 10.0 mi SW 4.6 mph - N/A   Clear
8:52 PM 62.1 °F 57.9 °F 86% 29.91 in 10.0 mi SSW 3.5 mph - N/A   Clear
10:52 PM 60.1 °F 57.9 °F 93% 29.92 in 10.0 mi South 6.9 mph - N/A   Clear
11:52 PM 57.0 °F 55.9 °F 96% 29.93 in 10.0 mi South 8.1 mph - N/A   Clear